Find Starlink 31913

NORAD ID: 59667 Int'l Des: 2024-084 Owner: SPXS Country: US Constellation: starlink operational
LEOCIRCULAR

リアルタイム位置

3D地球を読み込み中...

Starlink 31913について

説明を読み込み中...

次回通過

Passes for default location (London). Set your location on the main map for personalized predictions.

高度履歴

Loading altitude history...

軌道要素

1 59667U 24084P 26129.22580122 .00002491 00000-0 99965-4 0 9991
2 59667 43.0012 56.2658 0000799 263.4357 96.6404 15.27588461113676
Epoch: May 9, 2026 • Age: 19 hours

現在のステータス

高度 486.2 km
速度 7.63 km/s
衛星直下点 40.83°N, 117.47°W
打ち上げ日 May 6, 2024
運用期間 2 years
タイプ internet

技術仕様

分類 Payload
質量 730.00 kg
乾燥質量 700.00 kg
総質量 730.00 kg
長さ 0.30 m
直径 4.10 m
スパン 29.00 m
形状 Box + pan
製造者 SPXS
バスタイプ Starlink V2M
フェーズステータス In Orbit
所有者/国 SPXS/US

Most Searched